This is the latest recevied weather packets stored in our database for station/object KI4KWR-1. If no packets are shown the sender has not sent any weather packets the latest 10 day(s).
| Time | Temp. | Humidity | Pressure | Rain* | Wind** | Luminosity | Snow |
|---|---|---|---|---|---|---|---|
| 1788363904 | 32.78° C | 55% | 991.2 hPa | 0 mm | - | - | - |
| 1788363004 | 31.67° C | 55% | 991.2 hPa | 0 mm | - | - | - |
| 1788362104 | 31.67° C | 60% | 991.3 hPa | 0 mm | - | - | - |
| 1788361204 | 31.11° C | 62% | 991.1 hPa | 0 mm | - | - | - |
| 1788360304 | 30° C | 65% | 991.1 hPa | 0 mm | - | - | - |
| 1788359403 | 29.44° C | 68% | 991 hPa | 0 mm | - | - | - |
| 1788358504 | 28.89° C | 70% | 991 hPa | 0 mm | - | - | - |
| 1788357604 | 28.33° C | 72% | 990.8 hPa | 0 mm | - | - | - |
| 1788356704 | 27.78° C | 75% | 990.8 hPa | 0 mm | - | - | - |
| 1788355804 | 26.67° C | 76% | 990.9 hPa | 0 mm | - | - | - |
| 1788354904 | 25.56° C | 81% | 990.9 hPa | 0 mm | - | - | - |
| 1788354004 | 24.44° C | 84% | 990.8 hPa | 0 mm | - | - | - |
| 1788353104 | 23.33° C | 87% | 990.8 hPa | 0 mm | - | - | - |
| 1788352203 | 22.78° C | 89% | 990.8 hPa | 0 mm | - | - | - |
| 1788351303 | 22.22° C | 90% | 990.7 hPa | 0 mm | - | - | - |
| 1788350404 | 21.11° C | 91% | 990.3 hPa | 0 mm | - | - | - |
| 1788349504 | 20.56° C | 91% | 990.2 hPa | 0 mm | - | - | - |
| 1788348604 | 20.56° C | 91% | 990 hPa | 0 mm | - | - | - |
| 1788347703 | 21.11° C | 91% | 990.1 hPa | 0 mm | - | - | - |
| 1788346803 | 21.11° C | 92% | 989.8 hPa | 0 mm | - | - | - |
| 1788345903 | 21.11° C | 92% | 989.8 hPa | 0 mm | - | - | - |
| 1788345003 | 20.56° C | 91% | 989.7 hPa | 0 mm | - | - | - |
| 1788344104 | 20.56° C | 91% | 989.6 hPa | 0 mm | - | - | - |
| 1788343203 | 20.56° C | 91% | 989.5 hPa | 0 mm | - | - | - |
| 1788342303 | 21.11° C | 91% | 989.3 hPa | 0 mm | - | - | - |
* Rain latest hour (hover to see other rain measurements)
** Current wind speed in m/s (hover to see current wind gust speed)